Regional Weather Roundup
Issued by NWS

Home | Current Version | Previous Version | Graphics & Text | Print | Product List | Glossary On
Versions: 1 2 3 4 5 6 7 8 9 10 11 12 13 14 15 16 17 18 19 20 21 22 23 24 25 26 27 28 29 30 31 32 33 34 35 36 37 38 39 40 41 42 43 44 45 46 47 48 49 50
000
ASUS45 KPSR 011210
RWRAZ

ARIZONA HOURLY REGIONAL WEATHER ROUNDUP
NATIONAL WEATHER SERVICE PHOENIX AZ
500 AM MST SAT AUG 01 2015

NOTE: FAIR INDICATES FEW OR NO CLOUDS BELOW 12,000 FEET WITH NO
SIGNIFICANT WEATHER AND/OR OBSTRUCTIONS TO VISIBILITY.

AZZ001>003-036-011300-
NORTHWEST ARIZONA

CITY           SKY/WX    TMP DP  RH WIND       PRES   REMARKS
BULLHEAD CITY  CLOUDY    91  59  33 S10       29.86S
KINGMAN        CLOUDY    80  53  39 SE10      30.07R
6HR MIN TEMP:  78; 6HR MAX TEMP:  84;

$$

AZZ004>008-015-016-018-011300-
NORTH CENTRAL ARIZONA

CITY           SKY/WX    TMP DP  RH WIND       PRES   REMARKS
GRAND CANYON   CLOUDY    60  55  83 CALM      30.31S
6HR MIN TEMP:  59; 6HR MAX TEMP:  63; 6HR PCP: TRACE;

WILLIAMS       CLOUDY    63  52  67 S7        30.37S
PRESCOTT       LGT RAIN  68  61  78 S6        30.19F
6HR MIN TEMP:  67; 6HR MAX TEMP:  70; 6HR PCP: TRACE;

FLAGSTAFF      LGT RAIN  58  56  93 CALM      30.34S
6HR MIN TEMP:  57; 6HR MAX TEMP:  61; 6HR PCP: TRACE;

PAYSON         CLOUDY    68  59  73 CALM      30.22S
PAGE           MOCLDY    79  52  38 CALM      30.12S
6HR MIN TEMP:  76; 6HR MAX TEMP:  85;

$$

AZZ009>014-017-011300-
NORTHEAST ARIZONA

CITY           SKY/WX    TMP DP  RH WIND       PRES   REMARKS
WINSLOW        CLOUDY    69  59  70 SE3       30.20S
6HR MIN TEMP:  68; 6HR MAX TEMP:  72; 6HR PCP: TRACE;

SAINT JOHNS    PTCLDY    62  57  83 CALM      30.24F
6HR MIN TEMP:  62; 6HR MAX TEMP:  70;

SHOW LOW       PTCLDY    55  52  88 CALM      30.30S
$$

AZZ023-011300-
GREATER PHOENIX AREA

CITY           SKY/WX    TMP DP  RH WIND       PRES   REMARKS
PHOENIX        CLOUDY    83  69  62 W6        29.89S
6HR MIN TEMP:  81; 6HR MAX TEMP:  83;

LUKE AFB       CLOUDY    81  72  74 VRB1      29.89F
DEER VALLEY    MOCLDY    82  64  54 N3        29.92S
6HR MIN TEMP:  81; 6HR MAX TEMP:  85;

SCOTTSDALE     MOCLDY    83  64  52 N3        29.93S
6HR MIN TEMP:  82; 6HR MAX TEMP:  84;

MESA-GATEWAY   MOCLDY    81  66  61 N6        29.93S
$$

AZZ027-028-011300-
SOUTHWEST MARICOPA COUNTY AND PINAL COUNTY

CITY           SKY/WX    TMP DP  RH WIND       PRES   REMARKS
CASA GRANDE    PTCLDY    75  72  88 CALM      29.91S
6HR MIN TEMP:  75; 6HR MAX TEMP:  79;

GILA BEND      CLOUDY    81  69  65 N5        29.88R
6HR MIN TEMP:  80; 6HR MAX TEMP:  85;

$$

AZZ503-504-507>509-011300-
SOUTHEAST ARIZONA

CITY           SKY/WX    TMP DP  RH WIND       PRES   REMARKS
TUCSON         CLEAR     75  65  70 SE9       30.00S
6HR MIN TEMP:  75; 6HR MAX TEMP:  79;

DAVIS-MONTHAN  PTCLDY    73  63  70 SE9       29.99S
6HR MIN TEMP:  73; 6HR MAX TEMP:  78;

NOGALES        CLEAR     65  61  87 NE6       30.09S
6HR MIN TEMP:  64; 6HR MAX TEMP:  72;

SIERRA VISTA   CLEAR     65  61  89 VRB1      30.15F
6HR MIN TEMP:  64; 6HR MAX TEMP:  68;

DOUGLAS          N/A    N/A N/A N/A MISG      30.12F
SAFFORD        MOCLDY    71  67  87 E6        30.06R
6HR MIN TEMP:  71; 6HR MAX TEMP:  79; 6HR PCP:  0.04;

$$

AZZ020-021-025-026-031-011300-
SOUTHWEST ARIZONA

CITY           SKY/WX    TMP DP  RH WIND       PRES   REMARKS
YUMA             N/A     91  62  37 E12       29.82R
6HR MIN TEMP:  90; 6HR MAX TEMP:  98;

$$

CAZ031-033-041-043-047-048-061-011300-
SOUTHERN CALIFORNIA

CITY           SKY/WX    TMP DP  RH WIND       PRES   REMARKS
DOWNTOWN L.A.  CLOUDY    68  64  87 CALM      29.96S
6HR MIN TEMP:  67; 6HR MAX TEMP:  68;

L.A. AIRPORT   CLOUDY    67  65  93 SW5       29.96F FOG
6HR MIN TEMP:  67; 6HR MAX TEMP:  68;

SAN DIEGO      CLOUDY    70  63  78 W3        29.97S
6HR MIN TEMP:  70; 6HR MAX TEMP:  71;

BURBANK        CLOUDY    67  63  87 S5        29.96S
6HR MIN TEMP:  67; 6HR MAX TEMP:  73;

ONTARIO        PTCLDY    68  64  87 SW6       29.96F
6HR MIN TEMP:  68; 6HR MAX TEMP:  76;

RIVERSIDE      CLEAR     69  64  84 W3        29.96F
6HR MIN TEMP:  69; 6HR MAX TEMP:  77;

PALM SPRINGS   PTCLDY    83  61  47 E6        29.84S
6HR MIN TEMP:  81; 6HR MAX TEMP:  94;

EL CENTRO NAS  PTCLDY    79  50  36 CALM      29.81S
6HR MIN TEMP:  78; 6HR MAX TEMP:  91;

IMPERIAL       PTCLDY    81  54  39 CALM      29.79S
6HR MIN TEMP:  76; 6HR MAX TEMP:  93;

BLYTHE         PTCLDY    87  63  44 E3        29.85S
6HR MIN TEMP:  86; 6HR MAX TEMP:  94;

NEEDLES        CLOUDY    91  60  35 W8        29.88R
6HR MIN TEMP:  91; 6HR MAX TEMP:  99;

$$

NVZ020-UTZ003-011300-
SOUTHERN NEVADA-UTAH

CITY           SKY/WX    TMP DP  RH WIND       PRES   REMARKS
LAS VEGAS      CLOUDY    89  54  30 S3        29.89S
6HR MIN TEMP:  89; 6HR MAX TEMP:  94;

SALT LAKE CITY PTCLDY    66  34  30 E3        30.11R
6HR MIN TEMP:  65; 6HR MAX TEMP:  73;

$$

NMZ009-TXZ055-011300-
NEW MEXICO-WEST TEXAS

CITY           SKY/WX    TMP DP  RH WIND       PRES   REMARKS
ALBUQUERQUE    CLOUDY    68  59  73 SE3       30.29S
6HR MIN TEMP:  67; 6HR MAX TEMP:  71;

EL PASO        MOCLDY    76  58  53 N12       30.13R
6HR MIN TEMP:  76; 6HR MAX TEMP:  84;

$$


........................KEY........................
SKY/WX - SKY CONDITION/WEATHER
TMP    - TEMPERATURE IN FAHRENHEIT
DP     - DEW POINT IN FAHRENHEIT
RH     - RELATIVE HUMIDITY IN PERCENT
WIND   - DIRECTION AND SPEED IN MILES PER HOUR (MPH)
VRB    - VARIABLE WIND DIRECTION
PRES   - MEAN SEA LEVEL PRESSURE IN INCHES OF MERCURY
         F - FALLING PRESSURE   R - RISING PRESSURE
         S - STEADY PRESSURE
VSB    - VISIBILITY IN MILES
HX     - HEAT INDEX IN FAHRENHEIT
WCI    - WIND CHILL INDEX IN FAHRENHEIT
TC     - TEMPERATURE IN CELSIUS WHICH IS ALSO KNOWN AS
         TEMPERATURE IN CENTIGRADE
AFB    - AIR FORCE BASE
         LUKE AFB IS LUKE AIR FORCE BASE
         DAVIS-MONTHAN IS DAVIS-MONTHAN AIR FORCE BASE
NAS    - NAVAL AIR STATION
         EL CENTRO NAS IS EL CENTRO NAVAL AIR STATION
N/A    - NOT AVAILABLE




USA.gov is the U.S. government's official web portal to all federal, state and local government web resources and services.